Time,TemperatureF,DewpointF,PressureIn,WindDirection,WindDirectionDegrees,WindSpeedMPH,WindSpeedGustMPH,Humidity,HourlyPrecipIn,Conditions,Clouds,dailyrainin,SoftwareType,DateUTC
2013-03-03 00:02:00,54.3,18.2,30.10,North,0,0.0,0.0,24,0.00,,,0.00,WUHU216HW,2013-03-03 08:02:00,
2013-03-03 00:07:00,53.9,13.7,30.10,North,0,0.0,0.0,20,0.00,,,0.00,WUHU216HW,2013-03-03 08:07:00,
2013-03-03 00:12:00,53.5,6.9,30.10,North,0,0.0,0.0,15,0.00,,,0.00,WUHU216HW,2013-03-03 08:12:00,
2013-03-03 00:17:00,53.0,5.0,30.11,North,0,0.0,0.0,14,0.00,,,0.00,WUHU216HW,2013-03-03 08:17:00,
2013-03-03 00:23:00,52.5,4.6,30.10,North,0,0.0,0.0,14,0.00,,,0.00,WUHU216HW,2013-03-03 08:23:00,
2013-03-03 00:28:00,52.3,7.4,30.10,North,0,0.0,0.0,16,0.00,,,0.00,WUHU216HW,2013-03-03 08:28:00,
2013-03-03 00:33:00,52.1,4.2,30.10,North,0,0.0,0.0,14,0.00,,,0.00,WUHU216HW,2013-03-03 08:33:00,
2013-03-03 00:38:00,52.1,7.2,30.10,North,0,0.0,0.0,16,0.00,,,0.00,WUHU216HW,2013-03-03 08:38:00,
2013-03-03 00:43:00,52.1,7.2,30.10,North,0,0.0,0.0,16,0.00,,,0.00,WUHU216HW,2013-03-03 08:43:00,
2013-03-03 00:48:00,51.9,5.6,30.10,North,0,0.0,0.0,15,0.00,,,0.00,WUHU216HW,2013-03-03 08:48:00,
2013-03-03 00:53:00,51.9,5.6,30.10,North,0,0.0,0.0,15,0.00,,,0.00,WUHU216HW,2013-03-03 08:53:00,
2013-03-03 00:58:00,51.7,3.9,30.10,North,0,0.0,0.0,14,0.00,,,0.00,WUHU216HW,2013-03-03 08:58:00,
2013-03-03 01:03:00,51.6,5.4,30.10,North,0,0.0,0.0,15,0.00,,,0.00,WUHU216HW,2013-03-03 09:03:00,
2013-03-03 01:08:00,51.6,3.9,30.10,North,0,0.0,0.0,14,0.00,,,0.00,WUHU216HW,2013-03-03 09:08:00,
2013-03-03 01:13:00,51.6,3.9,30.10,North,0,0.0,0.0,14,0.00,,,0.00,WUHU216HW,2013-03-03 09:13:00,
2013-03-03 01:18:00,51.6,3.9,30.10,North,0,0.0,0.0,14,0.00,,,0.00,WUHU216HW,2013-03-03 09:18:00,
2013-03-03 01:24:00,51.6,0.5,30.10,North,0,0.0,0.0,12,0.00,,,0.00,WUHU216HW,2013-03-03 09:24:00,
2013-03-03 01:29:00,51.5,-1.5,30.10,North,0,0.0,0.0,11,0.00,,,0.00,WUHU216HW,2013-03-03 09:29:00,
2013-03-03 01:34:00,51.5,0.4,30.10,North,0,0.0,0.0,12,0.00,,,0.00,WUHU216HW,2013-03-03 09:34:00,
2013-03-03 01:39:00,51.3,0.2,30.10,North,0,0.0,0.0,12,0.00,,,0.00,WUHU216HW,2013-03-03 09:39:00,
2013-03-03 01:44:00,51.3,0.2,30.10,North,0,0.0,0.0,12,0.00,,,0.00,WUHU216HW,2013-03-03 09:44:00,
2013-03-03 01:49:00,50.9,-4.0,30.11,North,0,0.0,0.0,10,0.00,,,0.00,WUHU216HW,2013-03-03 09:49:00,
2013-03-03 01:54:00,50.4,-9.0,30.10,North,0,0.0,0.0,8,0.00,,,0.00,WUHU216HW,2013-03-03 09:54:00,
2013-03-03 01:59:00,49.8,-4.9,30.10,North,0,0.0,0.0,10,0.00,,,0.00,WUHU216HW,2013-03-03 09:59:00,
2013-03-03 02:04:00,49.5,-9.7,30.10,North,0,0.0,0.0,8,0.00,,,0.00,WUHU216HW,2013-03-03 10:04:00,
2013-03-03 02:09:00,49.3,-7.5,30.10,North,0,0.0,0.0,9,0.00,,,0.00,WUHU216HW,2013-03-03 10:09:00,
2013-03-03 02:14:00,49.3,-9.9,30.10,North,0,0.0,0.0,8,0.00,,,0.00,WUHU216HW,2013-03-03 10:14:00,
2013-03-03 02:20:00,49.1,-12.6,30.10,North,0,0.0,0.0,7,0.00,,,0.00,WUHU216HW,2013-03-03 10:20:00,
2013-03-03 02:25:00,49.1,-10.0,30.10,North,0,0.0,0.0,8,0.00,,,0.00,WUHU216HW,2013-03-03 10:25:00,
2013-03-03 02:30:00,48.8,-10.2,30.10,North,0,0.0,0.0,8,0.00,,,0.00,WUHU216HW,2013-03-03 10:30:00,
2013-03-03 02:35:00,48.4,-10.5,30.10,North,0,0.0,0.0,8,0.00,,,0.00,WUHU216HW,2013-03-03 10:35:00,
2013-03-03 02:40:00,48.4,-8.1,30.09,North,0,0.0,0.0,9,0.00,,,0.00,WUHU216HW,2013-03-03 10:40:00,
2013-03-03 02:45:00,48.2,-10.7,30.09,North,0,0.0,0.0,8,0.00,,,0.00,WUHU216HW,2013-03-03 10:45:00,
2013-03-03 02:50:00,48.0,-10.8,30.09,North,0,0.0,0.0,8,0.00,,,0.00,WUHU216HW,2013-03-03 10:50:00,
2013-03-03 02:55:00,47.9,-10.9,30.09,North,0,0.0,0.0,8,0.00,,,0.00,WUHU216HW,2013-03-03 10:55:00,
2013-03-03 03:00:00,47.7,-6.5,30.09,North,0,0.0,0.0,10,0.00,,,0.00,WUHU216HW,2013-03-03 11:00:00,
2013-03-03 03:05:00,47.7,-11.1,30.09,North,0,0.0,0.0,8,0.00,,,0.00,WUHU216HW,2013-03-03 11:05:00,
2013-03-03 03:10:00,47.5,-13.8,30.08,North,0,0.0,0.0,7,0.00,,,0.00,WUHU216HW,2013-03-03 11:10:00,
2013-03-03 03:15:00,47.3,-13.9,30.08,North,0,0.0,0.0,7,0.00,,,0.00,WUHU216HW,2013-03-03 11:15:00,
2013-03-03 03:20:00,47.3,-16.8,30.08,North,0,0.0,0.0,6,0.00,,,0.00,WUHU216HW,2013-03-03 11:20:00,
2013-03-03 03:26:00,47.3,-16.8,30.08,North,0,0.0,0.0,6,0.00,,,0.00,WUHU216HW,2013-03-03 11:26:00,
2013-03-03 03:31:00,47.1,-16.9,30.08,North,0,0.0,0.0,6,0.00,,,0.00,WUHU216HW,2013-03-03 11:31:00,
2013-03-03 03:36:00,47.1,-16.9,30.08,North,0,0.0,0.0,6,0.00,,,0.00,WUHU216HW,2013-03-03 11:36:00,
2013-03-03 03:41:00,47.2,-16.9,30.08,North,0,0.0,0.0,6,0.00,,,0.00,WUHU216HW,2013-03-03 11:41:00,
2013-03-03 03:46:00,47.1,-17.0,30.08,North,0,0.0,0.0,6,0.00,,,0.00,WUHU216HW,2013-03-03 11:46:00,
2013-03-03 03:51:00,47.2,-16.9,30.08,North,0,0.0,0.0,6,0.00,,,0.00,WUHU216HW,2013-03-03 11:51:00,
2013-03-03 03:56:00,47.2,-16.9,30.08,North,0,0.0,0.0,6,0.00,,,0.00,WUHU216HW,2013-03-03 11:56:00,
2013-03-03 04:01:00,47.2,-16.9,30.08,North,0,0.0,0.0,6,0.00,,,0.00,WUHU216HW,2013-03-03 12:01:00,
2013-03-03 04:06:00,47.2,-16.9,30.08,North,0,0.0,0.0,6,0.00,,,0.00,WUHU216HW,2013-03-03 12:06:00,
2013-03-03 04:11:00,47.4,-19.9,30.08,North,0,0.0,0.0,5,0.00,,,0.00,WUHU216HW,2013-03-03 12:11:00,
2013-03-03 04:16:00,47.2,-20.0,30.08,North,0,0.0,0.0,5,0.00,,,0.00,WUHU216HW,2013-03-03 12:16:00,
2013-03-03 04:21:00,47.4,-19.9,30.08,North,0,0.0,0.0,5,0.00,,,0.00,WUHU216HW,2013-03-03 12:21:00,
2013-03-03 04:27:00,47.4,-19.9,30.08,North,0,0.0,0.0,5,0.00,,,0.00,WUHU216HW,2013-03-03 12:27:00,
2013-03-03 04:32:00,47.6,-19.7,30.08,North,0,0.0,0.0,5,0.00,,,0.00,WUHU216HW,2013-03-03 12:32:00,
2013-03-03 04:37:00,47.9,-19.5,30.08,North,0,0.0,0.0,5,0.00,,,0.00,WUHU216HW,2013-03-03 12:37:00,
2013-03-03 04:42:00,48.1,-26.7,30.08,North,0,0.0,0.0,3,0.00,,,0.00,WUHU216HW,2013-03-03 12:42:00,
2013-03-03 04:47:00,48.1,-26.7,30.08,North,0,0.0,0.0,3,0.00,,,0.00,WUHU216HW,2013-03-03 12:47:00,
2013-03-03 04:52:00,48.1,-26.7,30.08,North,0,0.0,0.0,3,0.00,,,0.00,WUHU216HW,2013-03-03 12:52:00,
2013-03-03 04:57:00,48.2,-26.6,30.08,North,0,0.0,0.0,3,0.00,,,0.00,WUHU216HW,2013-03-03 12:57:00,
2013-03-03 05:02:00,48.2,-26.6,30.08,North,0,0.0,0.0,3,0.00,,,0.00,WUHU216HW,2013-03-03 13:02:00,
2013-03-03 05:07:00,48.2,-22.7,30.08,North,0,0.0,0.0,4,0.00,,,0.00,WUHU216HW,2013-03-03 13:07:00,
2013-03-03 05:12:00,48.1,-19.3,30.08,North,0,0.0,0.0,5,0.00,,,0.00,WUHU216HW,2013-03-03 13:12:00,
2013-03-03 05:17:00,48.0,-19.5,30.08,North,0,0.0,0.0,5,0.00,,,0.00,WUHU216HW,2013-03-03 13:17:00,
2013-03-03 05:22:00,48.0,-19.5,30.08,North,0,0.0,0.0,5,0.00,,,0.00,WUHU216HW,2013-03-03 13:22:00,
2013-03-03 05:27:00,47.8,-19.6,30.08,North,0,0.0,0.0,5,0.00,,,0.00,WUHU216HW,2013-03-03 13:27:00,
2013-03-03 05:33:00,47.8,-19.6,30.08,North,0,0.0,0.0,5,0.00,,,0.00,WUHU216HW,2013-03-03 13:33:00,
2013-03-03 05:38:00,48.0,-19.4,30.08,North,0,0.0,0.0,5,0.00,,,0.00,WUHU216HW,2013-03-03 13:38:00,
2013-03-03 05:43:00,48.0,-26.7,30.08,North,0,0.0,0.0,3,0.00,,,0.00,WUHU216HW,2013-03-03 13:43:00,
2013-03-03 05:48:00,48.0,-19.4,30.08,North,0,0.0,0.0,5,0.00,,,0.00,WUHU216HW,2013-03-03 13:48:00,
2013-03-03 05:53:00,48.1,-19.4,30.08,North,0,0.0,0.0,5,0.00,,,0.00,WUHU216HW,2013-03-03 13:53:00,
2013-03-03 05:58:00,47.9,-19.5,30.08,North,0,0.0,0.0,5,0.00,,,0.00,WUHU216HW,2013-03-03 13:58:00,
2013-03-03 06:03:00,47.9,-19.5,30.08,North,0,0.0,0.0,5,0.00,,,0.00,WUHU216HW,2013-03-03 14:03:00,
2013-03-03 06:08:00,47.9,-19.5,30.08,North,0,0.0,0.0,5,0.00,,,0.00,WUHU216HW,2013-03-03 14:08:00,
2013-03-03 06:13:00,47.7,-19.6,30.08,North,0,0.0,0.0,5,0.00,,,0.00,WUHU216HW,2013-03-03 14:13:00,
2013-03-03 06:18:00,47.7,-19.6,30.08,North,0,0.0,0.0,5,0.00,,,0.00,WUHU216HW,2013-03-03 14:18:00,
2013-03-03 06:23:00,47.8,-19.6,30.08,North,0,0.0,0.0,5,0.00,,,0.00,WUHU216HW,2013-03-03 14:23:00,
2013-03-03 06:28:00,48.0,-19.5,30.08,North,0,0.0,0.0,5,0.00,,,0.00,WUHU216HW,2013-03-03 14:28:00,
2013-03-03 06:33:00,48.2,-19.3,30.08,North,0,0.0,0.0,5,0.00,,,0.00,WUHU216HW,2013-03-03 14:33:00,
2013-03-03 06:38:00,48.2,-19.3,30.07,North,0,0.0,0.0,5,0.00,,,0.00,WUHU216HW,2013-03-03 14:38:00,
2013-03-03 06:43:00,48.2,-19.3,30.07,North,0,0.0,0.0,5,0.00,,,0.00,WUHU216HW,2013-03-03 14:43:00,
2013-03-03 06:49:00,48.0,-19.4,30.07,North,0,0.0,0.0,5,0.00,,,0.00,WUHU216HW,2013-03-03 14:49:00,
2013-03-03 06:54:00,48.1,-19.4,30.07,North,0,0.0,0.0,5,0.00,,,0.00,WUHU216HW,2013-03-03 14:54:00,
2013-03-03 06:59:00,48.1,-19.4,30.07,North,0,0.0,0.0,5,0.00,,,0.00,WUHU216HW,2013-03-03 14:59:00,
2013-03-03 07:04:00,48.1,-19.4,30.08,North,0,0.0,0.0,5,0.00,,,0.00,WUHU216HW,2013-03-03 15:04:00,
2013-03-03 07:09:00,48.1,-19.4,30.08,North,0,0.0,0.0,5,0.00,,,0.00,WUHU216HW,2013-03-03 15:09:00,
2013-03-03 07:14:00,48.1,-19.3,30.08,North,0,0.0,0.0,5,0.00,,,0.00,WUHU216HW,2013-03-03 15:14:00,
2013-03-03 07:19:00,48.2,-19.3,30.07,North,0,0.0,0.0,5,0.00,,,0.00,WUHU216HW,2013-03-03 15:19:00,
2013-03-03 07:24:00,48.0,-19.5,30.07,North,0,0.0,0.0,5,0.00,,,0.00,WUHU216HW,2013-03-03 15:24:00,
2013-03-03 07:29:00,48.2,-19.3,30.08,North,0,0.0,0.0,5,0.00,,,0.00,WUHU216HW,2013-03-03 15:29:00,
2013-03-03 07:34:00,48.4,-19.1,30.08,North,0,0.0,0.0,5,0.00,,,0.00,WUHU216HW,2013-03-03 15:34:00,
2013-03-03 07:39:00,48.4,-19.1,30.08,North,0,0.0,0.0,5,0.00,,,0.00,WUHU216HW,2013-03-03 15:39:00,
2013-03-03 07:45:00,48.4,-19.1,30.08,North,0,0.0,0.0,5,0.00,,,0.00,WUHU216HW,2013-03-03 15:45:00,
2013-03-03 07:50:00,48.5,-26.4,30.08,North,0,0.0,0.0,3,0.00,,,0.00,WUHU216HW,2013-03-03 15:50:00,
2013-03-03 07:55:00,48.5,-26.4,30.08,North,0,0.0,0.0,3,0.00,,,0.00,WUHU216HW,2013-03-03 15:55:00,
2013-03-03 08:00:00,48.5,-26.4,30.08,North,0,0.0,0.0,3,0.00,,,0.00,WUHU216HW,2013-03-03 16:00:00,
2013-03-03 08:05:00,48.5,-22.5,30.08,North,0,0.0,0.0,4,0.00,,,0.00,WUHU216HW,2013-03-03 16:05:00,
2013-03-03 08:10:00,48.6,-26.3,30.08,North,0,0.0,0.0,3,0.00,,,0.00,WUHU216HW,2013-03-03 16:10:00,
2013-03-03 08:15:00,48.6,-22.5,30.08,North,0,0.0,0.0,4,0.00,,,0.00,WUHU216HW,2013-03-03 16:15:00,
2013-03-03 08:20:00,48.6,-22.5,30.08,North,0,0.0,0.0,4,0.00,,,0.00,WUHU216HW,2013-03-03 16:20:00,
2013-03-03 08:25:00,48.4,-19.1,30.08,North,0,0.0,0.0,5,0.00,,,0.00,WUHU216HW,2013-03-03 16:25:00,
2013-03-03 08:30:00,48.6,-26.3,30.08,North,0,0.0,0.0,3,0.00,,,0.00,WUHU216HW,2013-03-03 16:30:00,
2013-03-03 08:35:00,48.7,-26.3,30.08,North,0,0.0,0.0,3,0.00,,,0.00,WUHU216HW,2013-03-03 16:35:00,
2013-03-03 08:40:00,48.9,-26.1,30.09,North,0,0.0,0.0,3,0.00,,,0.00,WUHU216HW,2013-03-03 16:40:00,
2013-03-03 08:45:00,49.0,-26.0,30.09,North,0,0.0,0.0,3,0.00,,,0.00,WUHU216HW,2013-03-03 16:45:00,
2013-03-03 08:50:00,49.2,-25.9,30.08,North,0,0.0,0.0,3,0.00,,,0.00,WUHU216HW,2013-03-03 16:50:00,
2013-03-03 08:55:00,49.4,-25.7,30.08,North,0,0.0,0.0,3,0.00,,,0.00,WUHU216HW,2013-03-03 16:55:00,
2013-03-03 09:01:00,49.9,-25.4,30.08,North,0,0.0,0.0,3,0.00,,,0.00,WUHU216HW,2013-03-03 17:01:00,
2013-03-03 09:06:00,49.9,-25.4,30.08,North,0,0.0,0.0,3,0.00,,,0.00,WUHU216HW,2013-03-03 17:06:00,
2013-03-03 09:11:00,50.0,-29.6,30.08,North,0,0.0,0.0,2,0.00,,,0.00,WUHU216HW,2013-03-03 17:11:00,
2013-03-03 09:16:00,50.2,-25.2,30.08,North,0,0.0,0.0,3,0.00,,,0.00,WUHU216HW,2013-03-03 17:16:00,
2013-03-03 09:21:00,50.2,-25.2,30.09,North,0,0.0,0.0,3,0.00,,,0.00,WUHU216HW,2013-03-03 17:21:00,
2013-03-03 09:26:00,50.3,-25.2,30.09,North,0,0.0,0.0,3,0.00,,,0.00,WUHU216HW,2013-03-03 17:26:00,
2013-03-03 09:31:00,50.5,-25.0,30.09,North,0,0.0,0.0,3,0.00,,,0.00,WUHU216HW,2013-03-03 17:31:00,
2013-03-03 09:36:00,50.5,-25.0,30.09,North,0,0.0,0.0,3,0.00,,,0.00,WUHU216HW,2013-03-03 17:36:00,
2013-03-03 09:41:00,50.9,-24.7,30.09,North,0,0.0,0.0,3,0.00,,,0.00,WUHU216HW,2013-03-03 17:41:00,
2013-03-03 09:46:00,51.3,-24.5,30.10,North,0,0.0,0.0,3,0.00,,,0.00,WUHU216HW,2013-03-03 17:46:00,
2013-03-03 09:51:00,51.9,-24.1,30.10,North,0,0.0,0.0,3,0.00,,,0.00,WUHU216HW,2013-03-03 17:51:00,
2013-03-03 09:56:00,52.6,-23.6,30.09,North,0,0.0,0.0,3,0.00,,,0.00,WUHU216HW,2013-03-03 17:56:00,
2013-03-03 10:02:00,53.7,-4.1,30.09,North,0,0.0,0.0,9,0.00,,,0.00,WUHU216HW,2013-03-03 18:02:00,
2013-03-03 10:07:00,53.8,2.2,30.09,North,0,0.0,0.0,12,0.00,,,0.00,WUHU216HW,2013-03-03 18:07:00,
2013-03-03 10:12:00,54.3,7.5,30.09,North,0,0.0,0.0,15,0.00,,,0.00,WUHU216HW,2013-03-03 18:12:00,
2013-03-03 10:17:00,54.7,11.9,30.09,North,0,0.0,0.0,18,0.00,,,0.00,WUHU216HW,2013-03-03 18:17:00,
2013-03-03 10:22:00,54.5,11.8,30.09,North,0,0.0,0.0,18,0.00,,,0.00,WUHU216HW,2013-03-03 18:22:00,
2013-03-03 10:27:00,54.7,12.0,30.09,North,0,0.0,0.0,18,0.00,,,0.00,WUHU216HW,2013-03-03 18:27:00,
2013-03-03 10:32:00,55.0,10.9,30.09,North,0,0.0,0.0,17,0.00,,,0.00,WUHU216HW,2013-03-03 18:32:00,
2013-03-03 10:37:00,55.7,12.7,30.09,North,0,0.0,0.0,18,0.00,,,0.00,WUHU216HW,2013-03-03 18:37:00,
2013-03-03 10:42:00,56.2,15.6,30.09,North,0,0.0,0.0,20,0.00,,,0.00,WUHU216HW,2013-03-03 18:42:00,
2013-03-03 10:47:00,56.4,16.8,30.09,North,0,0.0,0.0,21,0.00,,,0.00,WUHU216HW,2013-03-03 18:47:00,
2013-03-03 10:52:00,56.4,17.9,30.09,North,0,0.0,0.0,22,0.00,,,0.00,WUHU216HW,2013-03-03 18:52:00,
2013-03-03 10:58:00,56.0,19.6,30.09,North,0,0.0,0.0,24,0.00,,,0.00,WUHU216HW,2013-03-03 18:58:00,
2013-03-03 11:03:00,55.9,18.5,30.09,North,0,0.0,0.0,23,0.00,,,0.00,WUHU216HW,2013-03-03 19:03:00,
2013-03-03 11:08:00,56.1,18.6,30.09,North,0,0.0,0.0,23,0.00,,,0.00,WUHU216HW,2013-03-03 19:08:00,
2013-03-03 11:13:00,56.5,20.0,30.10,North,0,0.0,0.0,24,0.00,,,0.00,WUHU216HW,2013-03-03 19:13:00,
2013-03-03 11:18:00,56.7,21.1,30.09,North,0,0.0,0.0,25,0.00,,,0.00,WUHU216HW,2013-03-03 19:18:00,
2013-03-03 11:23:00,56.8,23.9,30.09,North,0,0.0,0.0,28,0.00,,,0.00,WUHU216HW,2013-03-03 19:23:00,
2013-03-03 11:28:00,57.4,24.4,30.09,North,0,0.0,0.0,28,0.00,,,0.00,WUHU216HW,2013-03-03 19:28:00,
2013-03-03 11:33:00,58.0,25.7,30.09,North,0,0.0,0.0,29,0.00,,,0.00,WUHU216HW,2013-03-03 19:33:00,
2013-03-03 11:39:00,58.2,25.9,30.09,North,0,0.0,0.0,29,0.00,,,0.00,WUHU216HW,2013-03-03 19:39:00,
2013-03-03 11:44:00,58.0,28.1,30.09,North,0,0.0,0.0,32,0.00,,,0.00,WUHU216HW,2013-03-03 19:44:00,
2013-03-03 11:49:00,57.7,27.8,30.09,North,0,0.0,0.0,32,0.00,,,0.00,WUHU216HW,2013-03-03 19:49:00,
2013-03-03 11:54:00,57.8,27.1,30.09,North,0,0.0,0.0,31,0.00,,,0.00,WUHU216HW,2013-03-03 19:54:00,
2013-03-03 11:59:00,58.0,31.7,30.09,North,0,0.0,0.0,37,0.00,,,0.00,WUHU216HW,2013-03-03 19:59:00,
2013-03-03 12:04:00,58.1,33.0,30.08,North,0,0.0,0.0,39,0.00,,,0.00,WUHU216HW,2013-03-03 20:04:00,
2013-03-03 12:09:00,57.9,33.5,30.09,North,0,0.0,0.0,40,0.00,,,0.00,WUHU216HW,2013-03-03 20:09:00,
2013-03-03 12:14:00,57.9,33.5,30.08,North,0,0.0,0.0,40,0.00,,,0.00,WUHU216HW,2013-03-03 20:14:00,
2013-03-03 12:19:00,57.8,34.1,30.08,North,0,0.0,0.0,41,0.00,,,0.00,WUHU216HW,2013-03-03 20:19:00,
2013-03-03 12:24:00,57.8,33.5,30.08,North,0,0.0,0.0,40,0.00,,,0.00,WUHU216HW,2013-03-03 20:24:00,
2013-03-03 12:29:00,57.8,32.8,30.08,North,0,0.0,0.0,39,0.00,,,0.00,WUHU216HW,2013-03-03 20:29:00,
2013-03-03 12:34:00,57.9,32.9,30.08,North,0,0.0,0.0,39,0.00,,,0.00,WUHU216HW,2013-03-03 20:34:00,
2013-03-03 12:39:00,58.1,33.1,30.08,North,0,0.0,0.0,39,0.00,,,0.00,WUHU216HW,2013-03-03 20:39:00,
2013-03-03 12:44:00,58.2,32.5,30.08,North,0,0.0,0.0,38,0.00,,,0.00,WUHU216HW,2013-03-03 20:44:00,
2013-03-03 12:49:00,58.4,32.0,30.07,North,0,0.0,0.0,37,0.00,,,0.00,WUHU216HW,2013-03-03 20:49:00,
2013-03-03 12:55:00,58.8,33.0,30.07,North,0,0.0,0.0,38,0.00,,,0.00,WUHU216HW,2013-03-03 20:55:00,
2013-03-03 13:00:00,59.1,31.9,30.07,North,0,0.0,0.0,36,0.00,,,0.00,WUHU216HW,2013-03-03 21:00:00,
2013-03-03 13:05:00,59.7,33.2,30.07,North,0,0.0,0.0,37,0.00,,,0.00,WUHU216HW,2013-03-03 21:05:00,
2013-03-03 13:10:00,59.8,35.3,30.07,North,0,0.0,0.0,40,0.00,,,0.00,WUHU216HW,2013-03-03 21:10:00,
2013-03-03 13:15:00,60.2,34.3,30.07,North,0,0.0,0.0,38,0.00,,,0.00,WUHU216HW,2013-03-03 21:15:00,
2013-03-03 13:20:00,60.7,35.4,30.06,North,0,0.0,0.0,39,0.00,,,0.00,WUHU216HW,2013-03-03 21:20:00,
2013-03-03 13:25:00,61.1,37.1,30.06,North,0,0.0,0.0,41,0.00,,,0.00,WUHU216HW,2013-03-03 21:25:00,
2013-03-03 13:30:00,61.6,39.4,30.06,North,0,0.0,0.0,44,0.00,,,0.00,WUHU216HW,2013-03-03 21:30:00,
2013-03-03 13:35:00,61.2,39.6,30.06,North,0,0.0,0.0,45,0.00,,,0.00,WUHU216HW,2013-03-03 21:35:00,
2013-03-03 13:40:00,61.0,39.4,30.06,North,0,0.0,0.0,45,0.00,,,0.00,WUHU216HW,2013-03-03 21:40:00,
2013-03-03 13:45:00,61.2,39.0,30.06,North,0,0.0,0.0,44,0.00,,,0.00,WUHU216HW,2013-03-03 21:45:00,
2013-03-03 13:50:00,61.2,39.6,30.06,North,0,0.0,0.0,45,0.00,,,0.00,WUHU216HW,2013-03-03 21:50:00,
2013-03-03 13:55:00,61.2,39.6,30.06,North,0,0.0,0.0,45,0.00,,,0.00,WUHU216HW,2013-03-03 21:55:00,
2013-03-03 14:00:00,61.6,36.9,30.06,North,0,0.0,0.0,40,0.00,,,0.00,WUHU216HW,2013-03-03 22:00:00,
2013-03-03 14:06:00,61.7,38.9,30.06,North,0,0.0,0.0,43,0.00,,,0.00,WUHU216HW,2013-03-03 22:06:00,
2013-03-03 14:11:00,61.9,39.0,30.06,North,0,0.0,0.0,43,0.00,,,0.00,WUHU216HW,2013-03-03 22:11:00,
2013-03-03 14:16:00,61.7,38.9,30.06,North,0,0.0,0.0,43,0.00,,,0.00,WUHU216HW,2013-03-03 22:16:00,
2013-03-03 14:21:00,61.6,38.8,30.06,North,0,0.0,0.0,43,0.00,,,0.00,WUHU216HW,2013-03-03 22:21:00,
2013-03-03 14:26:00,61.2,37.2,30.06,North,0,0.0,0.0,41,0.00,,,0.00,WUHU216HW,2013-03-03 22:26:00,
2013-03-03 14:31:00,60.8,34.8,30.06,North,0,0.0,0.0,38,0.00,,,0.00,WUHU216HW,2013-03-03 22:31:00,
2013-03-03 14:36:00,60.5,34.6,30.06,North,0,0.0,0.0,38,0.00,,,0.00,WUHU216HW,2013-03-03 22:36:00,
2013-03-03 14:41:00,60.7,34.8,30.05,North,0,0.0,0.0,38,0.00,,,0.00,WUHU216HW,2013-03-03 22:41:00,
2013-03-03 14:46:00,60.8,35.5,30.06,North,0,0.0,0.0,39,0.00,,,0.00,WUHU216HW,2013-03-03 22:46:00,
2013-03-03 14:51:00,60.8,36.2,30.05,North,0,0.0,0.0,40,0.00,,,0.00,WUHU216HW,2013-03-03 22:51:00,
2013-03-03 14:56:00,60.8,35.5,30.05,North,0,0.0,0.0,39,0.00,,,0.00,WUHU216HW,2013-03-03 22:56:00,
2013-03-03 15:02:00,60.5,35.9,30.05,North,0,0.0,0.0,40,0.00,,,0.00,WUHU216HW,2013-03-03 23:02:00,
2013-03-03 15:07:00,60.3,35.1,30.05,North,0,0.0,0.0,39,0.00,,,0.00,WUHU216HW,2013-03-03 23:07:00,
2013-03-03 15:12:00,60.1,34.2,30.05,North,0,0.0,0.0,38,0.00,,,0.00,WUHU216HW,2013-03-03 23:12:00,
2013-03-03 15:17:00,59.9,34.0,30.05,North,0,0.0,0.0,38,0.00,,,0.00,WUHU216HW,2013-03-03 23:17:00,
2013-03-03 15:22:00,59.8,33.3,30.05,North,0,0.0,0.0,37,0.00,,,0.00,WUHU216HW,2013-03-03 23:22:00,
2013-03-03 15:27:00,59.6,32.4,30.05,North,0,0.0,0.0,36,0.00,,,0.00,WUHU216HW,2013-03-03 23:27:00,
2013-03-03 15:32:00,59.0,28.9,30.05,North,0,0.0,0.0,32,0.00,,,0.00,WUHU216HW,2013-03-03 23:32:00,
2013-03-03 15:38:00,58.9,28.8,30.05,North,0,0.0,0.0,32,0.00,,,0.00,WUHU216HW,2013-03-03 23:38:00,
2013-03-03 15:42:00,58.7,26.3,30.05,North,0,0.0,0.0,29,0.00,,,0.00,WUHU216HW,2013-03-03 23:42:00,
2013-03-03 15:48:00,58.9,28.1,30.05,North,0,0.0,0.0,31,0.00,,,0.00,WUHU216HW,2013-03-03 23:48:00,
2013-03-03 15:53:00,59.0,28.1,30.05,North,0,0.0,0.0,31,0.00,,,0.00,WUHU216HW,2013-03-03 23:53:00,
2013-03-03 15:58:00,59.4,27.7,30.05,North,0,0.0,0.0,30,0.00,,,0.00,WUHU216HW,2013-03-03 23:58:00,
2013-03-03 16:03:00,59.8,29.7,30.05,North,0,0.0,0.0,32,0.00,,,0.00,WUHU216HW,2013-03-04 00:03:00,
2013-03-03 16:08:00,60.0,31.4,30.05,North,0,0.0,0.0,34,0.00,,,0.00,WUHU216HW,2013-03-04 00:08:00,
2013-03-03 16:13:00,60.4,31.0,30.05,North,0,0.0,0.0,33,0.00,,,0.00,WUHU216HW,2013-03-04 00:13:00,
2013-03-03 16:18:00,60.6,34.7,30.05,North,0,0.0,0.0,38,0.00,,,0.00,WUHU216HW,2013-03-04 00:18:00,
2013-03-03 16:23:00,60.6,33.3,30.05,North,0,0.0,0.0,36,0.00,,,0.00,WUHU216HW,2013-03-04 00:23:00,
2013-03-03 16:28:00,60.7,34.8,30.05,North,0,0.0,0.0,38,0.00,,,0.00,WUHU216HW,2013-03-04 00:28:00,
2013-03-03 16:33:00,60.9,34.2,30.05,North,0,0.0,0.0,37,0.00,,,0.00,WUHU216HW,2013-03-04 00:33:00,
2013-03-03 16:38:00,60.6,36.0,30.05,North,0,0.0,0.0,40,0.00,,,0.00,WUHU216HW,2013-03-04 00:38:00,
2013-03-03 16:43:00,60.2,34.3,30.05,North,0,0.0,0.0,38,0.00,,,0.00,WUHU216HW,2013-03-04 00:43:00,
2013-03-03 16:49:00,59.7,33.8,30.05,North,0,0.0,0.0,38,0.00,,,0.00,WUHU216HW,2013-03-04 00:49:00,
2013-03-03 16:54:00,59.3,33.5,30.05,North,0,0.0,0.0,38,0.00,,,0.00,WUHU216HW,2013-03-04 00:54:00,
2013-03-03 16:59:00,59.0,33.3,30.05,North,0,0.0,0.0,38,0.00,,,0.00,WUHU216HW,2013-03-04 00:59:00,
2013-03-03 17:04:00,58.8,33.1,30.05,North,0,0.0,0.0,38,0.00,,,0.00,WUHU216HW,2013-03-04 01:04:00,
2013-03-03 17:09:00,58.7,32.3,30.05,North,0,0.0,0.0,37,0.00,,,0.00,WUHU216HW,2013-03-04 01:09:00,
2013-03-03 17:14:00,58.5,32.1,30.05,North,0,0.0,0.0,37,0.00,,,0.00,WUHU216HW,2013-03-04 01:14:00,
2013-03-03 17:19:00,58.3,31.2,30.05,North,0,0.0,0.0,36,0.00,,,0.00,WUHU216HW,2013-03-04 01:19:00,
2013-03-03 17:24:00,58.1,31.7,30.05,North,0,0.0,0.0,37,0.00,,,0.00,WUHU216HW,2013-03-04 01:24:00,
2013-03-03 17:29:00,58.1,31.7,30.06,North,0,0.0,0.0,37,0.00,,,0.00,WUHU216HW,2013-03-04 01:29:00,
2013-03-03 17:34:00,58.0,31.7,30.06,North,0,0.0,0.0,37,0.00,,,0.00,WUHU216HW,2013-03-04 01:34:00,
2013-03-03 17:39:00,57.8,31.5,30.06,North,0,0.0,0.0,37,0.00,,,0.00,WUHU216HW,2013-03-04 01:39:00,
2013-03-03 17:44:00,57.7,31.4,30.06,North,0,0.0,0.0,37,0.00,,,0.00,WUHU216HW,2013-03-04 01:44:00,
2013-03-03 17:49:00,57.7,31.4,30.06,North,0,0.0,0.0,37,0.00,,,0.00,WUHU216HW,2013-03-04 01:49:00,
2013-03-03 17:54:00,57.5,31.9,30.06,North,0,0.0,0.0,38,0.00,,,0.00,WUHU216HW,2013-03-04 01:54:00,
2013-03-03 17:59:00,57.3,31.7,30.06,North,0,0.0,0.0,38,0.00,,,0.00,WUHU216HW,2013-03-04 01:59:00,
2013-03-03 18:04:00,57.1,30.8,30.06,North,0,0.0,0.0,37,0.00,,,0.00,WUHU216HW,2013-03-04 02:04:00,
2013-03-03 18:09:00,56.7,30.5,30.06,North,0,0.0,0.0,37,0.00,,,0.00,WUHU216HW,2013-03-04 02:09:00,
2013-03-03 18:14:00,56.5,30.3,30.06,North,0,0.0,0.0,37,0.00,,,0.00,WUHU216HW,2013-03-04 02:14:00,
2013-03-03 18:19:00,56.1,31.3,30.06,North,0,0.0,0.0,39,0.00,,,0.00,WUHU216HW,2013-03-04 02:19:00,
2013-03-03 18:25:00,55.8,30.4,30.06,North,0,0.0,0.0,38,0.00,,,0.00,WUHU216HW,2013-03-04 02:25:00,
2013-03-03 18:30:00,55.4,29.3,30.06,North,0,0.0,0.0,37,0.00,,,0.00,WUHU216HW,2013-03-04 02:30:00,
2013-03-03 18:35:00,54.9,26.9,30.06,North,0,0.0,0.0,34,0.00,,,0.00,WUHU216HW,2013-03-04 02:35:00,
2013-03-03 18:40:00,54.6,25.9,30.06,North,0,0.0,0.0,33,0.00,,,0.00,WUHU216HW,2013-03-04 02:40:00,
2013-03-03 18:45:00,54.4,25.7,30.06,North,0,0.0,0.0,33,0.00,,,0.00,WUHU216HW,2013-03-04 02:45:00,
2013-03-03 18:50:00,54.2,24.7,30.06,North,0,0.0,0.0,32,0.00,,,0.00,WUHU216HW,2013-03-04 02:50:00,
2013-03-03 18:55:00,54.0,23.8,30.07,North,0,0.0,0.0,31,0.00,,,0.00,WUHU216HW,2013-03-04 02:55:00,
2013-03-03 19:00:00,53.9,22.1,30.07,North,0,0.0,0.0,29,0.00,,,0.00,WUHU216HW,2013-03-04 03:00:00,
2013-03-03 19:05:00,53.4,21.7,30.07,North,0,0.0,0.0,29,0.00,,,0.00,WUHU216HW,2013-03-04 03:05:00,
2013-03-03 19:10:00,53.4,21.7,30.07,North,0,0.0,0.0,29,0.00,,,0.00,WUHU216HW,2013-03-04 03:10:00,
2013-03-03 19:15:00,53.4,21.7,30.07,North,0,0.0,0.0,29,0.00,,,0.00,WUHU216HW,2013-03-04 03:15:00,
2013-03-03 19:20:00,53.0,20.5,30.07,North,0,0.0,0.0,28,0.00,,,0.00,WUHU216HW,2013-03-04 03:20:00,
2013-03-03 19:25:00,52.9,19.6,30.07,North,0,0.0,0.0,27,0.00,,,0.00,WUHU216HW,2013-03-04 03:25:00,
2013-03-03 19:31:00,52.6,19.4,30.07,North,0,0.0,0.0,27,0.00,,,0.00,WUHU216HW,2013-03-04 03:31:00,
2013-03-03 19:36:00,52.2,18.2,30.07,North,0,0.0,0.0,26,0.00,,,0.00,WUHU216HW,2013-03-04 03:36:00,
2013-03-03 19:41:00,52.0,17.1,30.07,North,0,0.0,0.0,25,0.00,,,0.00,WUHU216HW,2013-03-04 03:41:00,
2013-03-03 19:46:00,51.9,17.0,30.07,North,0,0.0,0.0,25,0.00,,,0.00,WUHU216HW,2013-03-04 03:46:00,
2013-03-03 19:51:00,51.4,18.4,30.07,North,0,0.0,0.0,27,0.00,,,0.00,WUHU216HW,2013-03-04 03:51:00,
2013-03-03 19:56:00,51.2,19.0,30.07,North,0,0.0,0.0,28,0.00,,,0.00,WUHU216HW,2013-03-04 03:56:00,
2013-03-03 20:01:00,50.9,18.8,30.07,North,0,0.0,0.0,28,0.00,,,0.00,WUHU216HW,2013-03-04 04:01:00,
2013-03-03 20:06:00,50.6,18.5,30.07,North,0,0.0,0.0,28,0.00,,,0.00,WUHU216HW,2013-03-04 04:06:00,
2013-03-03 20:11:00,50.4,13.8,30.07,North,0,0.0,0.0,23,0.00,,,0.00,WUHU216HW,2013-03-04 04:11:00,
2013-03-03 20:16:00,50.1,14.6,30.07,North,0,0.0,0.0,24,0.00,,,0.00,WUHU216HW,2013-03-04 04:16:00,
2013-03-03 20:21:00,49.9,15.3,30.08,North,0,0.0,0.0,25,0.00,,,0.00,WUHU216HW,2013-03-04 04:21:00,
2013-03-03 20:27:00,49.5,15.0,30.08,North,0,0.0,0.0,25,0.00,,,0.00,WUHU216HW,2013-03-04 04:27:00,
2013-03-03 20:32:00,49.3,14.8,30.08,North,0,0.0,0.0,25,0.00,,,0.00,WUHU216HW,2013-03-04 04:32:00,
2013-03-03 20:37:00,49.1,14.6,30.08,North,0,0.0,0.0,25,0.00,,,0.00,WUHU216HW,2013-03-04 04:37:00,
2013-03-03 20:42:00,49.0,11.7,30.08,North,0,0.0,0.0,22,0.00,,,0.00,WUHU216HW,2013-03-04 04:42:00,
2013-03-03 20:47:00,48.8,12.5,30.08,North,0,0.0,0.0,23,0.00,,,0.00,WUHU216HW,2013-03-04 04:47:00,
2013-03-03 20:52:00,48.6,13.3,30.08,North,0,0.0,0.0,24,0.00,,,0.00,WUHU216HW,2013-03-04 04:52:00,
2013-03-03 20:57:00,48.4,12.2,30.08,North,0,0.0,0.0,23,0.00,,,0.00,WUHU216HW,2013-03-04 04:57:00,
2013-03-03 21:00:00,48.4,13.1,30.08,North,0,0.0,0.0,24,0.00,,,0.00,WUHU216HW,2013-03-04 05:00:00,
2013-03-03 21:05:00,48.2,12.0,30.08,North,0,0.0,0.0,23,0.00,,,0.00,WUHU216HW,2013-03-04 05:05:00,
2013-03-03 21:10:00,48.0,7.6,30.08,North,0,0.0,0.0,19,0.00,,,0.00,WUHU216HW,2013-03-04 05:10:00,
2013-03-03 21:15:00,47.8,10.6,30.08,North,0,0.0,0.0,22,0.00,,,0.00,WUHU216HW,2013-03-04 05:15:00,
2013-03-03 21:21:00,47.6,11.5,30.09,North,0,0.0,0.0,23,0.00,,,0.00,WUHU216HW,2013-03-04 05:21:00,
2013-03-03 21:26:00,47.6,10.5,30.08,North,0,0.0,0.0,22,0.00,,,0.00,WUHU216HW,2013-03-04 05:26:00,
2013-03-03 21:31:00,47.2,10.2,30.09,North,0,0.0,0.0,22,0.00,,,0.00,WUHU216HW,2013-03-04 05:31:00,
2013-03-03 21:36:00,46.8,8.8,30.09,North,0,0.0,0.0,21,0.00,,,0.00,WUHU216HW,2013-03-04 05:36:00,
2013-03-03 21:41:00,46.8,9.8,30.09,North,0,0.0,0.0,22,0.00,,,0.00,WUHU216HW,2013-03-04 05:41:00,
2013-03-03 21:46:00,46.6,8.7,30.09,North,0,0.0,0.0,21,0.00,,,0.00,WUHU216HW,2013-03-04 05:46:00,
2013-03-03 21:51:00,46.4,7.4,30.09,North,0,0.0,0.0,20,0.00,,,0.00,WUHU216HW,2013-03-04 05:51:00,
2013-03-03 21:56:00,46.2,7.2,30.09,North,0,0.0,0.0,20,0.00,,,0.00,WUHU216HW,2013-03-04 05:56:00,
2013-03-03 22:01:00,46.2,7.2,30.09,North,0,0.0,0.0,20,0.00,,,0.00,WUHU216HW,2013-03-04 06:01:00,
2013-03-03 22:06:00,46.0,7.1,30.09,North,0,0.0,0.0,20,0.00,,,0.00,WUHU216HW,2013-03-04 06:06:00,
2013-03-03 22:11:00,46.0,7.0,30.09,North,0,0.0,0.0,20,0.00,,,0.00,WUHU216HW,2013-03-04 06:11:00,
2013-03-03 22:16:00,45.7,6.9,30.09,North,0,0.0,0.0,20,0.00,,,0.00,WUHU216HW,2013-03-04 06:16:00,
2013-03-03 22:21:00,45.6,7.8,30.09,North,0,0.0,0.0,21,0.00,,,0.00,WUHU216HW,2013-03-04 06:21:00,
2013-03-03 22:27:00,45.4,6.6,30.10,North,0,0.0,0.0,20,0.00,,,0.00,WUHU216HW,2013-03-04 06:27:00,
2013-03-03 22:32:00,45.2,1.6,30.10,North,0,0.0,0.0,16,0.00,,,0.00,WUHU216HW,2013-03-04 06:32:00,
2013-03-03 22:37:00,45.0,1.4,30.09,North,0,0.0,0.0,16,0.00,,,0.00,WUHU216HW,2013-03-04 06:37:00,
2013-03-03 22:42:00,44.8,1.2,30.09,North,0,0.0,0.0,16,0.00,,,0.00,WUHU216HW,2013-03-04 06:42:00,
2013-03-03 22:47:00,44.4,-1.9,30.09,North,0,0.0,0.0,14,0.00,,,0.00,WUHU216HW,2013-03-04 06:47:00,
2013-03-03 22:52:00,44.0,-2.2,30.09,North,0,0.0,0.0,14,0.00,,,0.00,WUHU216HW,2013-03-04 06:52:00,
2013-03-03 22:57:00,44.0,-0.8,30.09,North,0,0.0,0.0,15,0.00,,,0.00,WUHU216HW,2013-03-04 06:57:00,
2013-03-03 23:02:00,44.0,0.6,30.08,North,0,0.0,0.0,16,0.00,,,0.00,WUHU216HW,2013-03-04 07:02:00,
2013-03-03 23:07:00,43.8,-0.9,30.08,North,0,0.0,0.0,15,0.00,,,0.00,WUHU216HW,2013-03-04 07:07:00,
2013-03-03 23:12:00,43.7,-1.0,30.08,North,0,0.0,0.0,15,0.00,,,0.00,WUHU216HW,2013-03-04 07:12:00,
2013-03-03 23:17:00,43.7,1.6,30.08,North,0,0.0,0.0,17,0.00,,,0.00,WUHU216HW,2013-03-04 07:17:00,
2013-03-03 23:22:00,43.6,1.6,30.08,North,0,0.0,0.0,17,0.00,,,0.00,WUHU216HW,2013-03-04 07:22:00,
2013-03-03 23:27:00,43.6,1.6,30.08,North,0,0.0,0.0,17,0.00,,,0.00,WUHU216HW,2013-03-04 07:27:00,
2013-03-03 23:32:00,43.4,0.1,30.08,North,0,0.0,0.0,16,0.00,,,0.00,WUHU216HW,2013-03-04 07:32:00,
2013-03-03 23:38:00,43.0,-3.0,30.08,North,0,0.0,0.0,14,0.00,,,0.00,WUHU216HW,2013-03-04 07:38:00,
2013-03-03 23:43:00,42.8,-3.2,30.08,North,0,0.0,0.0,14,0.00,,,0.00,WUHU216HW,2013-03-04 07:43:00,
2013-03-03 23:48:00,42.8,-4.8,30.08,North,0,0.0,0.0,13,0.00,,,0.00,WUHU216HW,2013-03-04 07:48:00,
2013-03-03 23:53:00,42.5,-6.7,30.08,North,0,0.0,0.0,12,0.00,,,0.00,WUHU216HW,2013-03-04 07:53:00,
2013-03-03 23:58:00,42.3,-6.9,30.08,North,0,0.0,0.0,12,0.00,,,0.00,WUHU216HW,2013-03-04 07:58:00,